Погода в Кызылорде

Погода в Кызылорде : погода сейчас, прогноз погоды и архив. Всё, что Вы хотите узнать о погоде в Кызылорде!

Хотите узнать прогноз погоды в Кызылорде? Тогда Вам сюда: Погода в Кызылорде

Поиск расширенной информации на нашем сайте:

Другие новости

Новости СМИ2

Главная страница сайта

Новости сайта

03.07.2017

Напоминаем, что на нашем специализированном сайте Метеоцентр.Азия вы можете получить высокодетализированные автоматические прогнозы погоды по пунктам России, СНГ и мира в авиационном формате (включающие направление и скорость ветра, видимость, явления погоды, количество и форму облачности, нижнюю и верхнюю границу облачности).

Рекомендуем: Цветы в шляпных коробках цветы в шляпных коробках.

Погода в Кызылорде - сегодня

Время (UTC), дата Ветер
(°,м/с) 
Видим.   Явления Облачность Т
(°С)
Тd
(°С)
f(%) Тe
(°С)
Pmin
(гПа)
dP
(гПа)
Po
(мм)
O2
(г/м3)
Тmin Tmax R s Состояние
почвы
03 20.07.17 010 (С) 20000 м    ясно 
+25.3 +8.9 35 +25  1012.7  0.8  748  274           
06 20.07.17 030 (СВ) 20000 м    10/0 верхняя 
[Cs]
+32.1 +9 24 +32  1012.5  0.2  749  268  +19.1         
09 20.07.17 020 (С) 20000 м    3/0 верхняя 
[Ci fib]
+34 +8.2 20 +34  1011.6  -0.8  748  267           
12 20.07.17 020 (С) 20000 м    ясно 
+34.6 +7.6 19 +35  1010.2  -1.4  747  266           
15 20.07.17 010 (С) 20000 м    ясно 
+31.8 +10.2 26 +33  1009.8  -0.5  746  268    +34.9       
18 20.07.17 020 (С) н/о    ясно 
+28.1 +11.2 35 +31  1010.4  0.4  747  271    +34.9       
21 20.07.17 360 (С) н/о    ясно 
+23 +10.7 46 +25  1010.5  -0.2  747  276           
00 21.07.17 020 (С) 20000 м    ясно 
+22.6 +11.1 48 +25  1010.9  0.4  747  276           
03 21.07.17 010 (С) 20000 м    ясно 
+26.2 +9.5 35 +27  1011.8  1.1  748  273           
06 21.07.17 020 (С) 20000 м    ясно 
+34.1 +8.4 21 +34  1011.2  -0.2  748  266  +21.8         
09 21.07.17 360 (С) 20000 м    ясно 
+36.2 +5.9 15 +36  1010.3  -0.8  747  265           
12 21.07.17 030 (СВ) 20000 м  пыльный позёмок  ясно 
+37 +5.5 14 +37  1009.3  -1  746  264           
15 21.07.17 020 (С) 20000 м    3/0 верхняя 
[Ci sp]
+34 +9.4 22 +34  1009.6  0.2  746  266    +37.8       
18 21.07.17 тихо ()   н/о    ясно 
+29.2 +13.7 39 +36  1010.2  0.3  747  269    +37.8       
21 21.07.17 тихо ()   н/о    ясно 
+24.8 +13.3 49 +31  1010  -0.4  746  273           
00 22.07.17 тихо ()   20000 м    ясно 
+23.4 +12 49 +27  1010.3  0.2  746  275           
03 22.07.17 350 (С) 20000 м    ясно 
+30.1 +13.2 36 +36  1010.7  0.8  747  269           
06 22.07.17 030 (СВ) 20000 м    ясно 
+36.1 +10 21 +37  1010.7  0.3  747  264  +22.3         
09 22.07.17 010 (С) 20000 м    4/0 средняя 
[Ac lent]
+38.3 +9.9 18 +39  1010.1  -0.5  747  262           
12 22.07.17 360 (С) 20000 м    4/0 средняя 
[Ac lent]
+38 +9.7 18 +39  1009.7  -0.4  747  262           
15 22.07.17 010 (С) 20000 м    4/0 средняя 
[Ac lent]
+35 +8.6 20 +35  1009.5  -0.4  746  265    +39.2       
18 22.07.17 040 (СВ) н/о    ясно 
+30.4 +11 30 +33  1009.8  0.1  746  269    +39.2       
21 22.07.17 тихо ()   н/о    ясно 
+26.8 +11 37 +29  1009.4  -0.6  746  272           
00 23.07.17 тихо ()   20000 м    ясно 
+23.8 +11.9 47 +28  1009.6  0.1  746  274           
03 23.07.17 тихо ()   20000 м    ясно 
+28.3 +11.2 35 +31  1009.9  0.5  746  270           
Время (UTC), дата Ветер
(°,м/с) 
Видим.   Явления Облачность Т
(°С)
Тd
(°С)
f(%) Тe
(°С)
Pmin
(гПа)
dP
(гПа)
Po
(мм)
O2
(г/м3)
Тmin Tmax R s Состояние
почвы

Для получения пояснительной информации подведите курсор к названию столбца.

ПОГОДА в Кызылорде - архив

Всё, что Вы хотите узнать о погоде в Кызылорде - удобно и подробно!

Выберите нужную дату (начиная с 1 января 2015* года) и нажмите кнопку "Найти".
Будут отображены архивные сводки погоды по пункту Кызылорда, начиная с указанной даты.


Отображать данные в формате CSV (для использования в таблицах Excel)


Внимание! Наш архив погоды предназначен исключительно для личного некоммерческого использования в познавательных целях. Если Вам необходимы официальные справки о состоянии погоды (для производственных, юридических, коммерческих и т.п. целей), обращайтесь в органы Росгидромета.

*Примечание: данная дата относится к архиву по метеостанциям СССР (Россия, СНГ, Балтия).
Архив по метеостанциям Зарубежной Европы и Азии (кроме Китая) хранится 10 дней, по другим регионам земного шара (Китай, Африка, Америка, Австралия, Океания) - 1 день.

Кызылорда - район местоположения метеостанции


Название, широта, долгота, высота метеостанции:
Кызылорда (город) 44.8°ш. 65.5°д. 130 м над ур. моря [Казахстан]

Дополнительная информация

В oтличие oт бoльшинства пoгoдных сайтoв мы публикуем пoдрoбную метеoинфoрмацию в детальнoм прoфессиoнальнoм фoрмате.

Характеристики температуры и влажнoсти вoздуха измеряются на высoте 2 м в тени вдали oт зданий и деревьев.
Скoрoсть ветра измеряется на высoте 10 м (на урoвне рoста челoвека скoрoсть ветра ниже в 1.5-2 раза). Если метеoстанция нахoдится в гoрoде или в лесу, тo скoрoсть ветра занижена на 2-4 м/с пo сравнению с oткрытым местoм. Скoрoсть ветра над акватoриями крупных рек и oзёр, а также на вершинах хoлмoв на 2-5 м/с выше, чем в oбычных услoвиях.
Атмoсфернoе давление в разных тoчках местнoсти мoжет значительнo oтличаться oт давления на метеoстанции, в зависимoсти oт услoвий рельефа (при пoдъёме на 10 м давление пoнижается примернo на 1 мм рт.ст.).